EUTELSAT 8 WEST A

Last updated on Sun Feb 26 2017 00:17:10 GMT+0000 (Coordinated Universal Time)

1 26927U 01042A 17056.16576197 -.00000111 00000-0 00000+0 0 9997 2 26927 0.0608 334.2122 0006770 358.0595 230.1093 1.00272400 56447
UTC large
Height (km)
Speed (km/s)
/
Latitude / Longitude
Inclination (degrees)
Orbital Period (minutes)
Azimuth
Elevation
Range (km)
Doppler Factor

Next 0 passes for location: London (51.5072 / 0.1276)

Sorry there are no passes over London.